Time,TemperatureF,DewpointF,PressureIn,WindDirection,WindDirectionDegrees,WindSpeedMPH,WindSpeedGustMPH,Humidity,HourlyPrecipIn,Conditions,Clouds,dailyrainin,SoftwareType,DateUTC
2013-06-09 00:01:00,58.4,53.6,30.04,WNW,282,0.0,4.0,84,0.00,,,0.03,VWS V14.01,2013-06-09 04:01:00,
2013-06-09 00:16:00,58.4,53.6,30.04,SSW,195,0.0,4.0,84,0.00,,,0.00,VWS V14.01,2013-06-09 04:16:00,
2013-06-09 00:31:00,58.0,53.2,30.04,SSW,199,0.0,6.0,84,0.00,,,0.00,VWS V14.01,2013-06-09 04:31:00,
2013-06-09 00:46:00,57.9,53.1,30.05,SSW,209,0.0,7.0,84,0.00,,,0.00,VWS V14.01,2013-06-09 04:46:00,
2013-06-09 01:16:00,58.3,53.2,30.04,NNE,31,0.0,5.0,83,0.00,,,0.00,VWS V14.01,2013-06-09 05:16:00,
2013-06-09 01:31:00,58.3,52.8,30.05,West,273,0.0,6.0,82,0.00,,,0.00,VWS V14.01,2013-06-09 05:31:00,
2013-06-09 01:46:00,58.2,53.1,30.04,SW,219,0.0,5.0,83,0.00,,,0.00,VWS V14.01,2013-06-09 05:46:00,
2013-06-09 02:01:00,58.2,52.7,30.05,SW,236,0.0,7.0,82,0.00,,,0.00,VWS V14.01,2013-06-09 06:01:00,
2013-06-09 02:16:00,58.3,52.5,30.05,WSW,254,0.0,5.0,81,0.00,,,0.00,VWS V14.01,2013-06-09 06:16:00,
2013-06-09 02:31:00,58.2,52.7,30.05,SSW,197,0.0,5.0,82,0.00,,,0.00,VWS V14.01,2013-06-09 06:31:00,
2013-06-09 02:46:00,57.8,52.3,30.05,WSW,242,0.0,6.0,82,0.00,,,0.00,VWS V14.01,2013-06-09 06:46:00,
2013-06-09 03:16:00,57.3,52.5,30.06,West,260,0.0,5.0,84,0.00,,,0.00,VWS V14.01,2013-06-09 07:16:00,
2013-06-09 03:31:00,57.1,52.3,30.06,WSW,245,0.0,4.0,84,0.00,,,0.00,VWS V14.01,2013-06-09 07:31:00,
2013-06-09 03:46:00,56.6,52.2,30.07,South,186,3.0,5.0,85,0.00,,,0.00,VWS V14.01,2013-06-09 07:46:00,
2013-06-09 04:01:00,56.2,52.1,30.08,West,277,4.0,5.0,86,0.00,,,0.00,VWS V14.01,2013-06-09 08:01:00,
2013-06-09 04:16:00,55.7,51.9,30.08,West,281,0.0,4.0,87,0.00,,,0.00,VWS V14.01,2013-06-09 08:16:00,
2013-06-09 04:31:00,55.4,51.9,30.08,West,261,0.0,6.0,88,0.00,,,0.00,VWS V14.01,2013-06-09 08:31:00,
2013-06-09 04:46:00,55.1,51.6,30.08,WNW,284,4.0,6.0,88,0.00,,,0.00,VWS V14.01,2013-06-09 08:46:00,
2013-06-09 05:01:00,54.6,51.4,30.09,West,278,0.0,4.0,89,0.00,,,0.00,VWS V14.01,2013-06-09 09:01:00,
2013-06-09 05:16:00,54.2,51.3,30.10,West,268,0.0,2.0,90,0.00,,,0.00,VWS V14.01,2013-06-09 09:16:00,
2013-06-09 05:31:00,54.0,51.4,30.10,West,273,0.0,5.0,91,0.00,,,0.00,VWS V14.01,2013-06-09 09:31:00,
2013-06-09 05:46:00,53.9,51.3,30.11,SSW,213,0.0,3.0,91,0.00,,,0.00,VWS V14.01,2013-06-09 09:46:00,
2013-06-09 06:16:00,54.1,51.5,30.12,WSW,238,0.0,3.0,91,0.00,,,0.00,VWS V14.01,2013-06-09 10:16:00,
2013-06-09 06:31:00,54.5,51.9,30.12,SW,224,0.0,3.0,91,0.00,,,0.00,VWS V14.01,2013-06-09 10:31:00,
2013-06-09 06:46:00,55.0,52.4,30.12,West,262,0.0,5.0,91,0.00,,,0.00,VWS V14.01,2013-06-09 10:46:00,
2013-06-09 07:01:00,55.8,52.9,30.13,WSW,253,0.0,3.0,90,0.00,,,0.00,VWS V14.01,2013-06-09 11:01:00,
2013-06-09 07:16:00,56.7,53.2,30.13,SW,215,0.0,6.0,88,0.00,,,0.00,VWS V14.01,2013-06-09 11:16:00,
2013-06-09 07:31:00,58.0,53.8,30.13,West,261,0.0,6.0,86,0.00,,,0.00,VWS V14.01,2013-06-09 11:31:00,
2013-06-09 07:46:00,59.1,54.6,30.14,South,171,0.0,7.0,85,0.00,,,0.00,VWS V14.01,2013-06-09 11:46:00,
2013-06-09 08:16:00,60.3,55.5,30.15,SW,215,0.0,6.0,84,0.00,,,0.00,VWS V14.01,2013-06-09 12:16:00,
2013-06-09 08:31:00,60.7,55.5,30.15,West,270,0.0,4.0,83,0.00,,,0.00,VWS V14.01,2013-06-09 12:31:00,
2013-06-09 08:46:00,61.4,56.5,30.16,WSW,240,0.0,3.0,84,0.00,,,0.00,VWS V14.01,2013-06-09 12:46:00,
2013-06-09 09:01:00,62.3,56.4,30.16,SW,214,0.0,4.0,81,0.00,,,0.00,VWS V14.01,2013-06-09 13:01:00,
2013-06-09 09:16:00,62.5,56.6,30.16,WSW,238,0.0,5.0,81,0.00,,,0.00,VWS V14.01,2013-06-09 13:16:00,
2013-06-09 09:31:00,63.6,57.3,30.16,WSW,238,0.0,3.0,80,0.00,,,0.00,VWS V14.01,2013-06-09 13:31:00,
2013-06-09 10:01:00,66.3,58.2,30.15,West,270,0.0,4.0,75,0.00,,,0.00,VWS V14.01,2013-06-09 14:01:00,
2013-06-09 10:16:00,66.5,56.0,30.15,WNW,284,0.0,5.0,69,0.00,,,0.00,VWS V14.01,2013-06-09 14:16:00,
2013-06-09 10:46:00,67.6,56.3,30.15,NW,321,0.0,5.0,67,0.00,,,0.00,VWS V14.01,2013-06-09 14:46:00,
2013-06-09 11:01:00,68.5,57.5,30.15,North,355,0.0,4.0,68,0.00,,,0.00,VWS V14.01,2013-06-09 15:01:00,
2013-06-09 11:16:00,69.0,57.2,30.16,West,261,0.0,4.0,66,0.00,,,0.00,VWS V14.01,2013-06-09 15:16:00,
2013-06-09 11:31:00,69.2,58.2,30.16,West,259,0.0,7.0,68,0.00,,,0.00,VWS V14.01,2013-06-09 15:31:00,
2013-06-09 11:46:00,68.9,57.1,30.16,SW,229,1.0,6.0,66,0.00,,,0.00,VWS V14.01,2013-06-09 15:46:00,
2013-06-09 12:01:00,69.8,57.9,30.16,SSW,210,0.0,5.0,66,0.00,,,0.00,VWS V14.01,2013-06-09 16:01:00,
2013-06-09 12:16:00,70.6,57.8,30.15,SW,225,0.0,4.0,64,0.00,,,0.00,VWS V14.01,2013-06-09 16:16:00,
2013-06-09 12:31:00,70.0,58.1,30.15,ENE,66,0.0,6.0,66,0.00,,,0.00,VWS V14.01,2013-06-09 16:31:00,
2013-06-09 12:46:00,71.3,58.1,30.15,NE,50,0.0,4.0,63,0.00,,,0.00,VWS V14.01,2013-06-09 16:46:00,
2013-06-09 13:01:00,71.0,58.7,30.15,NNE,26,0.0,3.0,65,0.00,,,0.00,VWS V14.01,2013-06-09 17:01:00,
2013-06-09 13:16:00,71.7,58.5,30.14,NE,44,1.0,4.0,63,0.00,,,0.00,VWS V14.01,2013-06-09 17:16:00,
2013-06-09 13:46:00,72.3,58.6,30.14,WNW,301,3.0,4.0,62,0.00,,,0.00,VWS V14.01,2013-06-09 17:46:00,
2013-06-09 14:01:00,71.7,59.8,30.13,SSE,166,0.0,4.0,66,0.00,,,0.00,VWS V14.01,2013-06-09 18:01:00,
2013-06-09 14:31:00,72.2,60.2,30.13,NNE,28,3.0,4.0,66,0.00,,,0.00,VWS V14.01,2013-06-09 18:31:00,
2013-06-09 14:46:00,73.9,61.0,30.13,NE,49,0.0,5.0,64,0.00,,,0.00,VWS V14.01,2013-06-09 18:46:00,
2013-06-09 15:01:00,73.6,61.5,30.13,WNW,289,0.0,6.0,66,0.00,,,0.00,VWS V14.01,2013-06-09 19:01:00,
2013-06-09 15:16:00,74.5,59.7,30.13,NE,54,0.0,5.0,60,0.00,,,0.00,VWS V14.01,2013-06-09 19:16:00,
2013-06-09 15:31:00,73.0,60.1,30.12,North,350,0.0,4.0,64,0.00,,,0.00,VWS V14.01,2013-06-09 19:31:00,
2013-06-09 15:46:00,74.0,58.8,30.12,NE,51,0.0,5.0,59,0.00,,,0.00,VWS V14.01,2013-06-09 19:46:00,
2013-06-09 16:01:00,74.7,59.4,30.11,NE,48,0.0,5.0,59,0.00,,,0.00,VWS V14.01,2013-06-09 20:01:00,
2013-06-09 16:16:00,74.4,59.2,30.11,ENE,78,1.0,6.0,59,0.00,,,0.00,VWS V14.01,2013-06-09 20:16:00,
2013-06-09 16:31:00,74.1,57.9,30.11,ENE,67,0.0,4.0,57,0.00,,,0.00,VWS V14.01,2013-06-09 20:31:00,
2013-06-09 16:46:00,74.2,58.0,30.10,NNE,25,2.0,3.0,57,0.00,,,0.00,VWS V14.01,2013-06-09 20:46:00,
2013-06-09 17:01:00,74.6,56.9,30.10,ENE,72,1.0,4.0,54,0.00,,,0.00,VWS V14.01,2013-06-09 21:01:00,
2013-06-09 17:16:00,74.4,57.7,30.10,ENE,60,0.0,5.0,56,0.00,,,0.00,VWS V14.01,2013-06-09 21:16:00,
2013-06-09 17:31:00,73.6,57.0,30.11,NNE,28,1.0,6.0,56,0.00,,,0.00,VWS V14.01,2013-06-09 21:31:00,
2013-06-09 17:46:00,73.0,56.9,30.11,NNE,22,0.0,5.0,57,0.00,,,0.00,VWS V14.01,2013-06-09 21:46:00,
2013-06-09 18:01:00,72.8,57.2,30.10,NNE,15,0.0,5.0,58,0.00,,,0.00,VWS V14.01,2013-06-09 22:01:00,
2013-06-09 18:16:00,72.5,56.9,30.09,NE,42,0.0,5.0,58,0.00,,,0.00,VWS V14.01,2013-06-09 22:16:00,
2013-06-09 18:31:00,72.3,56.2,30.09,NNE,24,0.0,4.0,57,0.00,,,0.00,VWS V14.01,2013-06-09 22:31:00,
2013-06-09 18:46:00,72.0,56.0,30.10,NE,42,0.0,3.0,57,0.00,,,0.00,VWS V14.01,2013-06-09 22:46:00,
2013-06-09 19:01:00,72.3,56.2,30.10,NE,43,0.0,2.0,57,0.00,,,0.00,VWS V14.01,2013-06-09 23:01:00,
2013-06-09 19:16:00,71.4,55.4,30.09,ENE,57,0.0,4.0,57,0.00,,,0.00,VWS V14.01,2013-06-09 23:16:00,
2013-06-09 19:31:00,70.9,54.9,30.10,ENE,66,0.0,2.0,57,0.00,,,0.00,VWS V14.01,2013-06-09 23:31:00,
2013-06-09 20:01:00,68.1,54.2,30.09,NE,53,0.0,1.0,61,0.00,,,0.00,VWS V14.01,2013-06-10 00:01:00,
2013-06-09 20:31:00,65.9,54.2,30.10,NE,53,0.0,0.0,66,0.00,,,0.00,VWS V14.01,2013-06-10 00:31:00,
2013-06-09 21:01:00,63.7,54.1,30.10,NE,52,0.0,0.0,71,0.00,,,0.00,VWS V14.01,2013-06-10 01:01:00,
2013-06-09 21:16:00,62.6,53.5,30.10,NE,52,0.0,0.0,72,0.00,,,0.00,VWS V14.01,2013-06-10 01:16:00,
2013-06-09 21:31:00,61.6,53.6,30.09,NE,52,0.0,0.0,75,0.00,,,0.00,VWS V14.01,2013-06-10 01:31:00,
2013-06-09 21:46:00,60.9,53.7,30.10,NE,53,0.0,0.0,77,0.00,,,0.00,VWS V14.01,2013-06-10 01:46:00,
2013-06-09 22:01:00,60.5,54.0,30.10,NE,53,0.0,0.0,79,0.00,,,0.00,VWS V14.01,2013-06-10 02:01:00,
2013-06-09 22:31:00,59.9,55.1,30.11,NE,53,0.0,0.0,84,0.00,,,0.00,VWS V14.01,2013-06-10 02:31:00,
2013-06-09 22:46:00,59.7,55.5,30.10,NE,53,0.0,0.0,86,0.00,,,0.00,VWS V14.01,2013-06-10 02:46:00,
2013-06-09 23:01:00,60.7,56.2,30.10,South,186,0.0,3.0,85,0.00,,,0.00,VWS V14.01,2013-06-10 03:01:00,
2013-06-09 23:31:00,63.2,56.9,30.09,SE,144,0.0,0.0,80,0.00,,,0.00,VWS V14.01,2013-06-10 03:31:00,
2013-06-09 23:46:00,63.2,56.9,30.09,SSE,149,0.0,3.0,80,0.00,,,0.00,VWS V14.01,2013-06-10 03:46:00,